Regional Weather Roundup
Issued by NWS Newport/Morehead, NC

Current Version | Previous Version | Graphics & Text | Print | Product List | Glossary Off
Versions: 1 2 3 4 5 6 7 8 9 10 11 12 13 14 15 16 17 18 19 20 21 22 23 24 25 26 27 28 29 30 31 32 33 34 35 36 37 38 39 40 41 42 43 44 45 46 47 48 49 50

000
ASUS42 KMHX 200325
RWRMHX
WEATHER ROUNDUP FOR EASTERN NORTH CAROLINA
NATIONAL WEATHER SERVICE NEWPORT/MOREHEAD CITY NC
1000 PM EST SUN FEB 19 2017

NOTE: "FAIR" INDICATES FEW OR NO CLOUDS BELOW 12,000 FEET
WITH NO SIGNIFICANT WEATHER AND/OR OBSTRUCTIONS TO VISIBILITY

NCZ015>017-031-032-045>047-102-103-200400-
NORTH COAST

CITY           SKY/WX    TMP DP  RH WIND       PRES   REMARKS
EDENTON        CLEAR     55  47  72 CALM      30.04R
ELIZABETH CITY CLEAR     50  44  80 CALM      30.02R
KITTY HAWK     NOT AVBL
MANTEO         CLEAR     47  45  91 CALM      30.03R

$$

NCZ045>047-081-094-103-104-200400-
CENTRAL COAST

CITY           SKY/WX    TMP DP  RH WIND       PRES   REMARKS
FRISCO         CLEAR     49  45  86 N3        30.02R

$$

NCZ095-097-098-100-101-200400-
SOUTHERN COAST

CITY           SKY/WX    TMP DP  RH WIND       PRES   REMARKS
BEAUFORT       CLEAR     52  49  89 CALM      30.03R
CEDAR ISLAND   NOT AVBL
JACKSONVILLE   CLEAR     53  48  83 W3        30.04R
PINEY ISLAND   CLEAR    N/A N/A N/A SW5       30.02R
WILMINGTON     CLEAR     52  48  86 CALM      30.05R


$$

NCZ011>013-027>030-043-044-078>080-089-090>093-098-200400-
COASTAL PLAIN

CITY           SKY/WX    TMP DP  RH WIND       PRES   REMARKS
AHOSKIE          N/A     50  44  81 CALM      30.04R
CLINTON        CLEAR     52  47  82 CALM      30.07R
ELIZABETHTOWN  CLEAR     58  47  67 CALM      30.07R
GOLDSBORO      CLEAR     57  46  64 CALM      30.03R
GREENVILLE     CLEAR     48  39  71 CALM      30.06R
HAVELOCK       CLEAR     51  45  79 CALM      30.04R
KENANSVILLE    NOT AVBL
KINSTON        CLEAR     58  45  62 NW5       30.06R
NEW BERN       CLEAR     53  49  86 CALM      30.04R
RICHLANDS      CLEAR     48  45  89 CALM      30.05R
ROCKY MOUNT    CLEAR     54  46  74 NW5       30.05R
WASHINGTON       N/A     52  46  79 CALM      30.04R
WHITEVILLE     CLEAR     55  47  73 CALM      30.06S

$$

AMZ130-135-150-152-154-156-158-170-250-252-270-ANZ085-086-088-633-658-670-200400-
MARINE OBSERVATIONS

STATION/POSITION TIME  TEMP    WIND        PRES    WAVE   SWELL
                       AIR SEA DIR/SP/G            HT/PER HT/PER
                 (UTC) (F)     (DEG/KT/KT) (MB)    (FT/S) (FT/S)
CHESAPEAKE LIGHT NOT AVBL
64 E VA BEACH    0250   52 51  230/  4/  6 1015.5    2/ 8   2/ 8
DUCK             0300   55 49  220/  5/  5 1016.2
2 E DUCK         0300      49                N/A     1/ 7
OREGON INLET     0300   53 51  240/  3/  3 1016.7
13E OREGON INLT  NOT AVBL
HATTERAS CG      0300   56 57     CALM     1016.4
DIAMOND BUOY     0250   63 67  350/  8/  8 1016.5    2/ 8   2/ 8
CAPE LOOKOUT     0300   58     270/  5/  5 1016.6
BEAUFORT LAB     0300   57 53  310/  1/  2 1015.9
30 SE NEW RVR IN 0308   64     300/  6/ 10 1017.2
30 SE NEW RVR IN 0243      63                N/A     2/ 6
27 SE WRIGHTSVLE 0308   60 59  260/  6/  8 1016.4
5 SE WRIGHTSVLE  0308   58 56  270/  6/  8 1017.5
225 S CAPE HAT   0250   69 71  340/ 16/ 19 1015.3    5/ 7   2/10
41 SE CHARLESTON 0250   66 69  310/  8/ 10 1018.1    1/ 6   2/ 6

$$




USA.gov is the U.S. government's official web portal to all federal, state and local government web resources and services.